Jaipur, India

3:29 PM IST on January 21, 2018 (GMT +0530)
Jaipur

Weather History for VIJP - July, 2013

Change the Weather History Date:

Thursday, July 18, 2013

  Actual Average Record
Temperature  
Mean Temperature 88 °F -  
Max Temperature 96 °F - - ()
Min Temperature 80 °F - - ()
Cooling Degree Days 23    
Growing Degree Days 38 (Base 50)    
Moisture  
Dew Point 78 °F    
Average Humidity 73    
Maximum Humidity 91    
Minimum Humidity 46    
Precipitation  
Precipitation 0.43 in - - ()
Sea Level Pressure  
Sea Level Pressure 29.49 in    
Wind  
Wind Speed 6 mph ()    
Max Wind Speed 12 mph    
Max Gust Speed -    
Visibility 2.1 miles    
Events Rain , Thunderstorm    
T = Trace of Precipitation, MM = Missing Value Source: Averaged Metar Reports

Daily Weather History Graph

Daily Weather History Graph

Search for Another Location

Airport or City:

Trip Planner

Search our weather history database for the weather conditions in past years. The results will help you decide how hot, cold, wet, or windy it might be!

Date:

Astronomy

Jul. 18, 2013 Rise Set
Actual Time 5:44 AM IST 7:21 PM IST
Civil Twilight 5:18 AM IST 7:47 PM IST
Nautical Twilight 4:47 AM IST 8:18 PM IST
Astronomical Twilight 4:15 AM IST 8:50 PM IST
Moon 2:51 PM IST (7/18) 1:06 AM IST (7/18)
Length of Visible Light 14h 28m
Length of Day
13h 37m
Waxing Gibbous, 73% of the Moon is Illuminated
Jul 18
Waxing Gibbous
Jul 22
Full
Jul 29
Last Quarter
Aug 7
New
Aug 14
First Quarter

Hourly Weather History & Observations

Time (IST) Temp. Heat Index Dew Point Humidity Pressure Visibility Wind Dir Wind Speed Gust Speed Precip Events Conditions
12:00 AM 84.2 °F 98.3 °F 80.6 °F 89% 29.56 in 1.9 mi West 4.6 mph - N/A   Scattered Clouds
1:00 AM 84.2 °F 98.3 °F 80.6 °F 89% 29.56 in 1.9 mi WNW 5.8 mph - N/A   Scattered Clouds
2:00 AM 82.4 °F 90.9 °F 77.0 °F 84% 29.53 in 1.9 mi Variable 2.3 mph - N/A   Scattered Clouds
2:30 AM 83 °F - 77 °F 77% 29.46 in 1 mi WNW 4.6 mph - -   Mist
3:00 AM 82.4 °F 90.9 °F 77.0 °F 84% 29.53 in 1.9 mi WNW 6.9 mph - N/A   Scattered Clouds
4:00 AM 82.4 °F 89.5 °F 75.2 °F 79% 29.53 in 1.9 mi NW 8.1 mph - N/A   Scattered Clouds
5:00 AM 80.6 °F 86.2 °F 75.2 °F 84% 29.53 in 1.9 mi WNW 6.9 mph - N/A   Scattered Clouds
6:00 AM 80.6 °F 87.1 °F 77.0 °F 89% 29.53 in 1.9 mi NW 5.8 mph - N/A   Scattered Clouds
7:00 AM 80.6 °F 87.1 °F 77.0 °F 89% 29.53 in 1.9 mi NW 5.8 mph - N/A   Scattered Clouds
8:00 AM 82.4 °F 90.9 °F 77.0 °F 84% 29.56 in 1.9 mi WNW 8.1 mph - N/A   Scattered Clouds
9:00 AM 82.4 °F 90.9 °F 77.0 °F 84% 29.56 in 1.9 mi WNW 6.9 mph - N/A   Scattered Clouds
10:00 AM 86.0 °F 96.9 °F 77.0 °F 74% 29.56 in 2.5 mi WNW 9.2 mph - N/A   Haze
11:00 AM 87.8 °F 99.7 °F 77.0 °F 70% 29.56 in 2.5 mi WNW 11.5 mph - N/A   Haze
11:30 AM 90 °F - 77 °F 57% 29.49 in 2 mi NW 11.5 mph - -   Haze
12:00 PM 91.4 °F 107.2 °F 78.8 °F 66% 29.56 in 2.5 mi WNW 10.4 mph - N/A   Haze
1:00 PM 91.4 °F 105.1 °F 77.0 °F 63% 29.53 in 2.5 mi NW 8.1 mph - N/A   Haze
1:30 PM 93.2 °F 110.2 °F 78.8 °F 63% 29.50 in 2.5 mi NW 9.2 mph - N/A   Haze
2:00 PM 95.0 °F 112.2 °F 78.8 °F 59% 29.50 in 2.5 mi NW 6.9 mph - N/A   Haze
2:30 PM 96 °F - 77 °F 46% 29.40 in 2 mi WNW 6.9 mph - -   Haze
3:00 PM 93.2 °F 107.2 °F 77.0 °F 59% 29.47 in 2.5 mi WNW 6.9 mph - N/A   Haze
3:30 PM 93.2 °F 110.2 °F 78.8 °F 63% 29.47 in 2.5 mi WNW 4.6 mph - N/A   Haze
4:00 PM 93.2 °F 110.2 °F 78.8 °F 63% 29.44 in 2.5 mi NW 4.6 mph - N/A   Haze
4:30 PM 93.2 °F 110.2 °F 78.8 °F 63% 29.44 in 2.5 mi NW 5.8 mph - N/A   Haze
5:00 PM 93.2 °F 110.2 °F 78.8 °F 63% 29.44 in 2.5 mi NW 4.6 mph - N/A   Haze
5:30 PM 94 °F - 78 °F 51% 29.35 in 2 mi West 6.9 mph - -   Haze
6:00 PM 93.2 °F 113.6 °F 80.6 °F 67% 29.42 in 2.5 mi West 6.9 mph - N/A   Haze
7:00 PM 91.4 °F 111.0 °F 80.6 °F 71% 29.42 in 2.5 mi West 4.6 mph - N/A   Haze
8:00 PM 82.4 °F 92.4 °F 78.8 °F 89% 29.44 in 1.6 mi West 6.9 mph - N/A Rain , Thunderstorm Thunderstorms and Rain
8:30 PM 82 °F - 80 °F 91% 29.39 in 1 mi Calm Calm - - Thunderstorm Light Thunderstorm